STARLINK-36163

Last updated on Fri Dec 19 2025 00:02:09 GMT+0000 (Coordinated Universal Time)

1 67008U 25293F 25351.83335648 -.00974922 30494-3 -22041-2 0 9997 2 67008 69.9938 309.0271 0004099 268.4865 117.8948 15.97384734 2382
UTC large
Height (km)
Speed (km/s)
/
Latitude / Longitude
Inclination (degrees)
Orbital Period (minutes)
Azimuth
Elevation
Range (km)
Doppler Factor

Next 0 passes for location: London (51.5072 / 0.1276)

Sorry there are no passes over London.